Simultaneous Nadir Overpasses (SNOs) Predictions

Prediction of SNOs between AURA and NPP Satellite Orbit:

Table of predicted SNOs for the next 14.0 days since TLE Epoch: 10/2/2015
Index Date (AURA) Time (AURA) Lat,Lon (AURA) SZA (AURA ) Date (NPP) Time (NPP) Lat,Lon (NPP) SZA (NPP ) Distance(km) Time Diff (sec)
1 10/05/2015 08:56:56 -78.74, 117.87 82.50 10/05/2015 08:55:44 -78.75, 117.94 82.46 1.64 72
2 10/05/2015 09:46:15 79.02, -72.87 97.15 10/05/2015 09:46:21 79.02, -72.93 97.16 1.23 6
3 10/08/2015 01:13:26 -78.78,-126.05 81.58 10/08/2015 01:12:37 -78.78,-126.08 81.53 0.82 49
4 10/08/2015 02:02:40 79.26, 44.43 97.82 10/08/2015 02:03:08 79.26, 44.55 97.77 2.56 28
5 10/10/2015 17:29:52 -78.92, -9.38 80.79 10/10/2015 17:29:26 -78.92, -9.42 80.77 0.83 26
6 10/10/2015 18:19:07 79.35, 160.90 98.66 10/10/2015 18:19:58 79.35, 161.02 98.60 2.50 51
7 10/13/2015 09:46:17 -79.12, 107.67 80.09 10/13/2015 09:46:14 -79.12, 107.74 80.10 1.67 3
8 10/13/2015 10:34:52 80.85, -69.84 97.27 10/13/2015 10:36:06 80.66, -69.45 97.14 22.24 74
9 10/16/2015 01:13:28 78.75, 53.77 101.32 10/16/2015 01:12:32 78.75, 53.72 101.38 1.14 56




NCC Satellite Simultaneous Nadir Overpasses (SNOs) Prediction Service
